Weather Roundup
Issued by NWS Chicago, IL

Home | Current Version | Previous Version | Graphics & Text | Print | Product List | Glossary On
Versions: 1 2 3 4 5 6 7 8 9 10 11 12 13 14 15 16 17 18 19 20 21 22 23 24 25 26 27 28 29 30 31 32 33 34 35 36 37 38 39 40 41 42 43 44 45 46 47 48 49 50
000
NZUS59 KLOT 112008
HRRLOT

CHICAGO AREA WEATHER ROUNDUP
NATIONAL WEATHER SERVICE CHICAGO/ROMEOVILLE IL
200 PM CST MON DEC 11 2017

NOTE: "FAIR" INDICATES FEW OR NO CLOUDS BELOW 12,000 FEET WITH NO
SIGNIFICANT WEATHER AND/OR OBSTRUCTIONS TO VISIBILITY.

* THESE STATIONS ARE NOT UNDER NWS QUALITY CONTROL. THEY ALSO MAY NOT
  REPORT WEATHER SUCH AS PRECIPITATION OR FOG.

ILZ005-006-012>014-019>023-112100-
NORTHEAST ILLINOIS

CITY           SKY/WX    TMP DP  RH WIND       PRES   REMARKS
OHARE          CLOUDY    38  25  59 SE7       29.67F
MIDWAY         CLOUDY    39  26  59 SE8       29.67F
AURORA         CLOUDY    39  27  62 E7        29.66F
LANSING*       CLOUDY    38  28  69 SE9       29.68F
WAUKEGAN       CLOUDY    33  25  72 S6        29.68F WCI  28
DUPAGE AIRPORT CLOUDY    38  27  64 SE6       29.66F
WHEELING       CLOUDY    37  27  67 SE6       29.69F
KANKAKEE*      MOSUNNY   44  28  53 SE10      29.65F
MORRIS*        CLOUDY    41  28  61 E7        29.64S
LEWIS AIRPORT* MOSUNNY   39  27  63 SE8       29.66F
NORTHERLY ISL    N/A     38  27  65 SE6         N/A
$$

WIZ051-052-058>065-066-070>072-112100-
SOUTHEAST WISCONSIN

CITY           SKY/WX    TMP DP  RH WIND       PRES   REMARKS
MILWAUKEE      CLOUDY    33  29  85 CALM      29.70F
KENOSHA*       FLURRIES  35  24  64 CALM      29.69F
RACINE*        LGT SNOW  34  29  82 S7        29.70F WCI  28
BURLINGTON     FLURRIES  40  38  90 S3        29.68F
WAUKESHA       CLOUDY    30  23  74 SE5       29.70F WCI  25
WEST BEND      CLOUDY    32  27  80 CALM      29.68F
$$

INZ001>003-010>013-019-020-112100-
NORTHWEST INDIANA

CITY           SKY/WX    TMP DP  RH WIND       PRES   REMARKS
GARY*          CLOUDY    39  25  56 SE9       29.69F
MICHIGAN CITY* NOT AVBL
RENSSELAER*    NOT AVBL
VALPARAISO     CLOUDY    38  27  64 SE12      29.69F
$$

LMZ740>746-112100-
SOUTHERN LAKE MICHIGAN

STATION/POSITION TIME  SKY/WX   TEMP WIND        PRES    VSBY
                                AIR  DIR/SP/G
                 (UTC)          (F)  (DEG/KT/KT) (MB)    (MI)
HARRISON CRIB    1940            36  150/  7/ 10   N/A
BURNHAM HARBOR   2000            38  120/  4/ 10   N/A
CALUMET HARBOR   1942            37  160/  7/ 12 1004.6F
BURNS HARBOR     1940            36  150/  2/ 12 1006.4F
MICHIGAN CITY    1940            33  120/ 10/ 12   N/A
$$

ABBREVIATIONS USED IN REMARKS
   TC - TEMPERATURE IN CELSIUS
  WCI - WIND CHILL INDEX
   HX - HEAT INDEX
  VSB - VISIBILITY
$$




USA.gov is the U.S. government's official web portal to all federal, state and local government web resources and services.